SL-16 R/B, 23343

Orbit data source: Space-Track

SL-16 R/B, 23343 is space debris in SSO originally from a launch on Fri, 04 Nov 1994 UTC launched from the Tyuratam Missile And Space Complex (TTMTR). Debris objects in space refer to the collection of defunct objects orbiting the Earth. Examples of debris include non-operational satellites, rocket bodies, and fragments generated from explosions, collisions, or faulty payload assembly.

Loading next visibility...
Identifier
23343, 1994-074B
Orbit
SSO
Country
Flag of CISCIS
Related business
Manufacturer
Yuzhnoe
Mission
Spacecraft
Bus & Motor
11S772, Unknown motor
Mass
9,000 kg wet, 9,000 kg dry
Launch date (UTC)
1994-11-04 (31 years ago)
Launch vehicle
Unknown
Launch site
Tyuratam Missile And Space Complex (TTMTR)
Object type
Payload
Rocket body
Debris
Shape & HBR
Cyl, 5.2 m
Radar Cross Section
37.829 m², Large (>1 m²)

Expand to show TLE details & history
Last TLE update: 12 hours ago

TLE from 12 hours ago
0 SL-16 R/B
1 23343U 94074B   25343.35106870  .00000926  00000-0  13107-3 0  9998
2 23343  97.7204  12.7902 0007307 145.5563 225.8118 14.79284166673891
Epoch: 2025-12-09T08:25Z
TLE epoch observation values (Epoch: 2025-12-09T08:25:32.335Z)
Latitude
11.15494°
Longitude
166.54494°
Altitude
637.423 km
Speed
7.538 km/s
True Right ascension
00h 45m 03s
True Declination
11° 05' 19"
Sunlit
Object was in full shadow at epoch
Visualization orbit readout
Latitude
Unknown
Longitude
Unknown
Altitude
Unknown
Speed
Unknown
Apparent Right ascension
Unknown
Apparent Declination
Unknown
Sunlit
N/A
Visualization observer readout
Local Sidereal Time
19:09:21
Azimuth
Unknown
Elevation
Unknown
Doppler factor
Unknown
Orbital elements
Apogee altitude
633.738 km
Perigee altitude
623.499 km
Semi-major axis
7,006.755 km
Eccentricity
0.00073
Inclination
97.7204°
RAAN
12.7902°
Arg. of periapsis
145.5563°
True anomaly
225.7518°
Mean anomaly
225.8118°
Eccentric anomaly
225.7818°
Mean motion
3.70056 °/min
Orbital period
97.28 mins
BSTAR
0.00013107
Loading maneuver chart data...
Computing Atmospheric mass density...

Documentation

Showing up to 5 results
|